sat.trackr.live / text

‹ back to catalog

STARLINK-4030

NORAD 52698 · 2022-053AU

PAYLOAD ACTIVE UNKNOWN

§ Identity

Operator
Country
US
Launch date
2022-05-18
Launch site
AFETR
Launch vehicle
Mass (kg)
RCS (m²)

Purposes: comms

External: N2YO · Heavens-Above · Gunter

§ Orbital elements

Epoch: 2026-05-25T00:50:42.283968Z

Period
95.44 min
Inclination
53.2120°
Eccentricity
0.0001167
Mean motion
15.08841412 rev/d
Perigee alt
538.9 km
Apogee alt
540.5 km
Semi-major
6,917.9 km
B*
6.5567e-5
RAAN
166.3843°
Arg perigee
82.2825°
Mean anomaly
277.8300°
Rev number
22,260

§ Raw data

STARLINK-40301 52698U 22053AU  26145.03521162  .00000756  00000+0  65567-4 0  99902 52698  53.2120 166.3843 0001167  82.2825 277.8300 15.08841412222601

JSON: /api/v1/satellites/52698 · /tle

For live sub-satellite position, see the globe view (requires WebGL).

§ Visibility from observer

Set your observer location to see the next 7 days of passes ≥ 10°. The values pass through the URL so the page stays shareable.

No JS? Fill the form by hand. The geolocation button needs JavaScript.